Time,TemperatureF,DewpointF,PressureIn,WindDirection,WindDirectionDegrees,WindSpeedMPH,WindSpeedGustMPH,Humidity,HourlyPrecipIn,Conditions,Clouds,dailyrainin,SoftwareType,DateUTC
2013-05-16 00:01:00,68.9,55.1,29.95,SW,225,0.2,0.2,61,0.00,,,0.00,WUHU216TE923,2013-05-16 04:01:00,
2013-05-16 00:06:00,68.7,54.9,29.95,West,270,0.2,1.0,61,0.00,,,0.00,WUHU216TE923,2013-05-16 04:06:00,
2013-05-16 00:11:00,68.7,54.9,29.95,West,270,0.2,1.0,61,0.00,,,0.00,WUHU216TE923,2013-05-16 04:11:00,
2013-05-16 00:16:00,68.7,54.9,29.95,West,270,0.2,0.2,61,0.00,,,0.00,WUHU216TE923,2013-05-16 04:16:00,
2013-05-16 00:21:00,68.5,53.8,29.94,NW,315,0.1,0.2,59,0.00,,,0.00,WUHU216TE923,2013-05-16 04:21:00,
2013-05-16 00:26:00,68.5,54.7,29.94,West,270,0.1,0.1,61,0.00,,,0.00,WUHU216TE923,2013-05-16 04:26:00,
2013-05-16 00:31:00,68.2,54.9,29.94,West,270,0.0,0.1,62,0.00,,,0.00,WUHU216TE923,2013-05-16 04:31:00,
2013-05-16 00:36:00,68.0,54.2,29.94,West,270,0.0,0.0,61,0.00,,,0.00,WUHU216TE923,2013-05-16 04:36:00,
2013-05-16 00:41:00,68.2,55.3,29.94,West,270,0.0,0.0,63,0.00,,,0.00,WUHU216TE923,2013-05-16 04:41:00,
2013-05-16 00:46:00,68.0,54.7,29.94,West,270,0.0,0.0,62,0.00,,,0.00,WUHU216TE923,2013-05-16 04:46:00,
2013-05-16 00:51:00,67.6,54.7,29.94,West,270,0.0,0.0,63,0.00,,,0.00,WUHU216TE923,2013-05-16 04:51:00,
2013-05-16 00:56:00,67.6,54.7,29.94,West,270,0.0,0.0,63,0.00,,,0.00,WUHU216TE923,2013-05-16 04:56:00,
2013-05-16 01:01:00,67.3,54.0,29.93,West,270,0.0,0.0,62,0.00,,,0.00,WUHU216TE923,2013-05-16 05:01:00,
2013-05-16 01:06:00,67.5,54.6,29.93,West,270,0.0,0.0,63,0.00,,,0.00,WUHU216TE923,2013-05-16 05:06:00,
2013-05-16 01:11:00,67.3,54.0,29.93,West,270,0.0,0.0,62,0.00,,,0.00,WUHU216TE923,2013-05-16 05:11:00,
2013-05-16 01:16:00,67.1,54.3,29.93,West,270,0.0,0.0,63,0.00,,,0.00,WUHU216TE923,2013-05-16 05:16:00,
2013-05-16 01:21:00,67.1,54.7,29.94,West,270,0.0,0.0,64,0.00,,,0.00,WUHU216TE923,2013-05-16 05:21:00,
2013-05-16 01:26:00,66.7,54.7,29.94,West,270,0.0,0.0,65,0.00,,,0.00,WUHU216TE923,2013-05-16 05:26:00,
2013-05-16 01:31:00,66.6,54.2,29.94,West,270,0.0,0.0,64,0.00,,,0.00,WUHU216TE923,2013-05-16 05:31:00,
2013-05-16 01:36:00,66.6,53.8,29.94,West,270,0.0,0.0,63,0.00,,,0.00,WUHU216TE923,2013-05-16 05:36:00,
2013-05-16 01:41:00,66.7,53.9,29.94,West,270,0.0,0.0,63,0.00,,,0.00,WUHU216TE923,2013-05-16 05:41:00,
2013-05-16 01:46:00,66.6,54.2,29.94,West,270,0.0,0.0,64,0.00,,,0.00,WUHU216TE923,2013-05-16 05:46:00,
2013-05-16 01:51:00,66.4,54.9,29.94,West,270,0.0,0.0,66,0.00,,,0.00,WUHU216TE923,2013-05-16 05:51:00,
2013-05-16 01:56:00,66.4,54.9,29.94,West,270,0.0,0.0,66,0.00,,,0.00,WUHU216TE923,2013-05-16 05:56:00,
2013-05-16 02:01:00,65.8,54.3,29.93,West,270,0.0,0.0,66,0.00,,,0.00,WUHU216TE923,2013-05-16 06:01:00,
2013-05-16 02:06:00,65.8,54.3,29.93,West,270,0.0,0.0,66,0.00,,,0.00,WUHU216TE923,2013-05-16 06:06:00,
2013-05-16 02:11:00,65.7,54.2,29.93,West,270,0.0,0.0,66,0.00,,,0.00,WUHU216TE923,2013-05-16 06:11:00,
2013-05-16 02:16:00,65.7,54.6,29.93,West,270,0.0,0.0,67,0.00,,,0.00,WUHU216TE923,2013-05-16 06:16:00,
2013-05-16 02:21:00,65.5,54.0,29.93,West,270,0.0,0.0,66,0.00,,,0.00,WUHU216TE923,2013-05-16 06:21:00,
2013-05-16 02:26:00,65.5,54.0,29.93,West,270,0.0,0.0,66,0.00,,,0.00,WUHU216TE923,2013-05-16 06:26:00,
2013-05-16 02:31:00,65.7,54.2,29.93,West,270,0.0,0.0,66,0.00,,,0.00,WUHU216TE923,2013-05-16 06:31:00,
2013-05-16 02:36:00,65.5,54.0,29.93,West,270,0.0,0.0,66,0.00,,,0.00,WUHU216TE923,2013-05-16 06:36:00,
2013-05-16 02:41:00,65.3,53.8,29.94,West,270,0.0,0.0,66,0.00,,,0.00,WUHU216TE923,2013-05-16 06:41:00,
2013-05-16 02:46:00,65.3,53.8,29.94,West,270,0.0,0.0,66,0.00,,,0.00,WUHU216TE923,2013-05-16 06:46:00,
2013-05-16 02:51:00,65.1,54.0,29.94,West,270,0.0,0.0,67,0.00,,,0.00,WUHU216TE923,2013-05-16 06:51:00,
2013-05-16 02:56:00,65.1,54.0,29.94,West,270,0.0,0.0,67,0.00,,,0.00,WUHU216TE923,2013-05-16 06:56:00,
2013-05-16 03:01:00,65.1,53.6,29.94,West,270,0.0,0.0,66,0.00,,,0.00,WUHU216TE923,2013-05-16 07:01:00,
2013-05-16 03:06:00,64.9,53.4,29.94,West,270,0.0,0.0,66,0.00,,,0.00,WUHU216TE923,2013-05-16 07:06:00,
2013-05-16 03:11:00,64.9,53.4,29.94,West,270,0.0,0.0,66,0.00,,,0.00,WUHU216TE923,2013-05-16 07:11:00,
2013-05-16 03:16:00,64.9,53.4,29.94,West,270,0.0,0.0,66,0.00,,,0.00,WUHU216TE923,2013-05-16 07:16:00,
2013-05-16 03:21:00,64.4,53.4,29.94,West,270,0.0,0.0,67,0.00,,,0.00,WUHU216TE923,2013-05-16 07:21:00,
2013-05-16 03:26:00,64.2,53.6,29.94,West,270,0.0,0.0,68,0.00,,,0.00,WUHU216TE923,2013-05-16 07:26:00,
2013-05-16 03:31:00,64.2,53.6,29.94,West,270,0.0,0.0,68,0.00,,,0.00,WUHU216TE923,2013-05-16 07:31:00,
2013-05-16 03:36:00,64.0,53.4,29.94,West,270,0.2,1.3,68,0.00,,,0.00,WUHU216TE923,2013-05-16 07:36:00,
2013-05-16 03:41:00,64.0,53.0,29.94,West,270,0.3,1.3,67,0.00,,,0.00,WUHU216TE923,2013-05-16 07:41:00,